Year,Month,Day,Hour,Minute,Value (Times are PST for temperature in C)
2012,03,25,00,00,4.70
2012,03,25,00,01,4.70
2012,03,25,00,02,4.60
2012,03,25,00,03,4.60
2012,03,25,00,04,4.60
2012,03,25,00,05,4.60
2012,03,25,00,06,4.60
2012,03,25,00,07,4.60
2012,03,25,00,08,4.60
2012,03,25,00,09,4.30
2012,03,25,00,10,4.20
2012,03,25,00,11,4.20
2012,03,25,00,12,4.20
2012,03,25,00,13,4.20
2012,03,25,00,14,4.10
2012,03,25,00,15,4.10
2012,03,25,00,16,4.00
2012,03,25,00,17,4.00
2012,03,25,00,18,4.00
2012,03,25,00,19,4.00
2012,03,25,00,20,4.00
2012,03,25,00,21,4.10
2012,03,25,00,22,4.10
2012,03,25,00,23,4.20
2012,03,25,00,24,4.20
2012,03,25,00,25,4.20
2012,03,25,00,26,4.30
2012,03,25,00,27,4.30
2012,03,25,00,28,4.40
2012,03,25,00,29,4.40
2012,03,25,00,30,4.50
2012,03,25,00,31,4.60
2012,03,25,00,32,4.60
2012,03,25,00,33,4.60
2012,03,25,00,34,4.60
2012,03,25,00,35,4.70
2012,03,25,00,36,4.70
2012,03,25,00,37,4.70
2012,03,25,00,38,4.70
2012,03,25,00,39,4.70
2012,03,25,00,40,4.70
2012,03,25,00,41,4.80
2012,03,25,00,42,4.80
2012,03,25,00,43,4.80
2012,03,25,00,44,4.80
2012,03,25,00,45,4.80
2012,03,25,00,46,4.80
2012,03,25,00,47,4.80
2012,03,25,00,48,4.80
2012,03,25,00,49,4.80
2012,03,25,00,50,4.80
2012,03,25,00,51,4.70
2012,03,25,00,52,4.70
2012,03,25,00,53,4.70
2012,03,25,00,54,4.70
2012,03,25,00,55,4.60
2012,03,25,00,56,4.60
2012,03,25,00,57,4.60
2012,03,25,00,58,4.60
2012,03,25,00,59,4.60
2012,03,25,01,00,4.60
2012,03,25,01,01,4.60
2012,03,25,01,02,4.60
2012,03,25,01,03,4.70
2012,03,25,01,04,4.70
2012,03,25,01,05,4.70
2012,03,25,01,06,4.70
2012,03,25,01,07,4.70
2012,03,25,01,08,4.70
2012,03,25,01,09,4.70
2012,03,25,01,10,4.70
2012,03,25,01,11,4.70
2012,03,25,01,12,4.70
2012,03,25,01,13,4.60
2012,03,25,01,14,4.60
2012,03,25,01,15,4.60
2012,03,25,01,16,4.60
2012,03,25,01,17,4.60
2012,03,25,01,18,4.60
2012,03,25,01,19,4.60
2012,03,25,01,20,4.60
2012,03,25,01,21,4.60
2012,03,25,01,22,4.60
2012,03,25,01,23,4.60
2012,03,25,01,24,4.60
2012,03,25,01,25,4.60
2012,03,25,01,26,4.60
2012,03,25,01,27,4.60
2012,03,25,01,28,4.60
2012,03,25,01,29,4.60
2012,03,25,01,30,4.60
2012,03,25,01,31,4.60
2012,03,25,01,32,4.50
2012,03,25,01,33,4.60
2012,03,25,01,34,4.60
2012,03,25,01,35,4.60
2012,03,25,01,36,4.60
2012,03,25,01,37,4.50
2012,03,25,01,38,4.50
2012,03,25,01,39,4.50
2012,03,25,01,40,4.50
2012,03,25,01,41,4.50
2012,03,25,01,42,4.50
2012,03,25,01,43,4.50
2012,03,25,01,44,4.50
2012,03,25,01,45,4.50
2012,03,25,01,46,4.50
2012,03,25,01,47,4.50
2012,03,25,01,48,4.50
2012,03,25,01,49,4.50
2012,03,25,01,50,4.40
2012,03,25,01,51,4.40
2012,03,25,01,52,4.40
2012,03,25,01,53,4.40
2012,03,25,01,54,4.50
2012,03,25,01,55,4.50
2012,03,25,01,56,4.50
2012,03,25,01,57,4.50
2012,03,25,01,58,4.40
2012,03,25,01,59,4.40
2012,03,25,02,00,4.40
2012,03,25,02,01,4.40
2012,03,25,02,02,4.40
2012,03,25,02,03,4.50
2012,03,25,02,04,4.50
2012,03,25,02,05,4.60
2012,03,25,02,06,4.60
2012,03,25,02,07,4.60
2012,03,25,02,08,4.60
2012,03,25,02,09,4.60
2012,03,25,02,10,4.60
2012,03,25,02,11,4.60
2012,03,25,02,12,4.60
2012,03,25,02,13,4.60
2012,03,25,02,14,4.60
2012,03,25,02,15,4.60
2012,03,25,02,16,4.60
2012,03,25,02,17,4.60
2012,03,25,02,18,4.50
2012,03,25,02,19,4.50
2012,03,25,02,20,4.50
2012,03,25,02,21,4.40
2012,03,25,02,22,4.40
2012,03,25,02,23,4.40
2012,03,25,02,24,4.30
2012,03,25,02,25,4.30
2012,03,25,02,26,4.30
2012,03,25,02,27,4.30
2012,03,25,02,28,4.20
2012,03,25,02,29,4.20
2012,03,25,02,30,4.20
2012,03,25,02,31,4.20
2012,03,25,02,32,4.20
2012,03,25,02,33,4.20
2012,03,25,02,34,4.20
2012,03,25,02,35,4.20
2012,03,25,02,36,4.20
2012,03,25,02,37,4.10
2012,03,25,02,38,4.10
2012,03,25,02,39,4.10
2012,03,25,02,40,4.10
2012,03,25,02,41,4.10
2012,03,25,02,42,4.10
2012,03,25,02,43,4.10
2012,03,25,02,44,4.20
2012,03,25,02,45,4.20
2012,03,25,02,46,4.20
2012,03,25,02,47,4.20
2012,03,25,02,48,4.20
2012,03,25,02,49,4.20
2012,03,25,02,50,4.20
2012,03,25,02,51,4.20
2012,03,25,02,52,4.30
2012,03,25,02,53,4.30
2012,03,25,02,54,4.30
2012,03,25,02,55,4.30
2012,03,25,02,56,4.30
2012,03,25,02,57,4.30
2012,03,25,02,58,4.30
2012,03,25,02,59,4.30
2012,03,25,03,00,4.20
2012,03,25,03,01,4.20
2012,03,25,03,02,4.20
2012,03,25,03,03,4.10
2012,03,25,03,04,4.10
2012,03,25,03,05,4.00
2012,03,25,03,06,4.00
2012,03,25,03,07,4.00
2012,03,25,03,08,4.00
2012,03,25,03,09,4.00
2012,03,25,03,10,4.10
2012,03,25,03,11,4.10
2012,03,25,03,12,4.10
2012,03,25,03,13,4.10
2012,03,25,03,14,4.20
2012,03,25,03,15,4.20
2012,03,25,03,16,4.20
2012,03,25,03,17,4.20
2012,03,25,03,18,4.20
2012,03,25,03,19,4.30
2012,03,25,03,20,4.40
2012,03,25,03,21,4.50
2012,03,25,03,22,4.50
2012,03,25,03,23,4.60
2012,03,25,03,24,4.60
2012,03,25,03,25,4.60
2012,03,25,03,26,4.70
2012,03,25,03,27,4.80
2012,03,25,03,28,4.90
2012,03,25,03,29,4.90
2012,03,25,03,30,4.90
2012,03,25,03,31,5.00
2012,03,25,03,32,5.10
2012,03,25,03,33,5.10
2012,03,25,03,34,5.10
2012,03,25,03,35,5.10
2012,03,25,03,36,5.20
2012,03,25,03,37,5.30
2012,03,25,03,38,5.30
2012,03,25,03,39,5.30
2012,03,25,03,40,5.20
2012,03,25,03,41,5.20
2012,03,25,03,42,5.20
2012,03,25,03,43,5.20
2012,03,25,03,44,5.20
2012,03,25,03,45,5.20
2012,03,25,03,46,5.20
2012,03,25,03,47,5.20
2012,03,25,03,48,5.20
2012,03,25,03,49,5.30
2012,03,25,03,50,5.30
2012,03,25,03,51,5.30
2012,03,25,03,52,5.30
2012,03,25,03,53,5.30
2012,03,25,03,54,5.30
2012,03,25,03,55,5.30
2012,03,25,03,56,5.30
2012,03,25,03,57,5.40
2012,03,25,03,58,5.50
2012,03,25,03,59,5.50
2012,03,25,04,00,5.50
2012,03,25,04,01,5.60
2012,03,25,04,02,5.70
2012,03,25,04,03,5.70
2012,03,25,04,04,5.70
2012,03,25,04,05,5.70
2012,03,25,04,06,5.80
2012,03,25,04,07,5.80
2012,03,25,04,08,5.80
2012,03,25,04,09,5.90
2012,03,25,04,10,5.90
2012,03,25,04,11,6.00
2012,03,25,04,12,6.00
2012,03,25,04,13,6.00
2012,03,25,04,14,6.00
2012,03,25,04,15,6.10
2012,03,25,04,16,6.10
2012,03,25,04,17,6.10
2012,03,25,04,18,6.10
2012,03,25,04,19,6.20
2012,03,25,04,20,6.20
2012,03,25,04,21,6.20
2012,03,25,04,22,6.20
2012,03,25,04,23,6.20
2012,03,25,04,24,6.20
2012,03,25,04,25,6.20
2012,03,25,04,26,6.20
2012,03,25,04,27,6.20
2012,03,25,04,28,6.20
2012,03,25,04,29,6.20
2012,03,25,04,30,6.10
2012,03,25,04,31,6.00
2012,03,25,04,32,6.00
2012,03,25,04,33,5.90
2012,03,25,04,34,5.90
2012,03,25,04,35,5.80
2012,03,25,04,36,5.80
2012,03,25,04,37,5.80
2012,03,25,04,38,5.80
2012,03,25,04,39,5.80
2012,03,25,04,40,5.80
2012,03,25,04,41,5.90
2012,03,25,04,42,5.90
2012,03,25,04,43,5.90
2012,03,25,04,44,6.00
2012,03,25,04,45,6.00
2012,03,25,04,46,6.00
2012,03,25,04,47,6.00
2012,03,25,04,48,6.10
2012,03,25,04,49,6.10
2012,03,25,04,50,6.10
2012,03,25,04,51,6.10
2012,03,25,04,52,6.10
2012,03,25,04,53,6.10
2012,03,25,04,54,6.10
2012,03,25,04,55,6.10
2012,03,25,04,56,6.00
2012,03,25,04,57,6.00
2012,03,25,04,58,5.90
2012,03,25,04,59,5.90
2012,03,25,05,00,5.80
2012,03,25,05,01,5.80
2012,03,25,05,02,5.70
2012,03,25,05,03,5.70
2012,03,25,05,04,5.70
2012,03,25,05,05,5.70
2012,03,25,05,06,5.60
2012,03,25,05,07,5.60
2012,03,25,05,08,5.60
2012,03,25,05,09,5.70
2012,03,25,05,10,5.70
2012,03,25,05,11,5.70
2012,03,25,05,12,5.70
2012,03,25,05,13,5.70
2012,03,25,05,14,5.70
2012,03,25,05,15,5.70
2012,03,25,05,16,5.70
2012,03,25,05,17,5.70
2012,03,25,05,18,5.60
2012,03,25,05,19,5.60
2012,03,25,05,20,5.60
2012,03,25,05,21,5.60
2012,03,25,05,22,5.60
2012,03,25,05,23,5.60
2012,03,25,05,24,5.60
2012,03,25,05,25,5.60
2012,03,25,05,26,5.60
2012,03,25,05,27,5.60
2012,03,25,05,28,5.70
2012,03,25,05,29,5.70
2012,03,25,05,30,5.70
2012,03,25,05,31,5.70
2012,03,25,05,32,5.70
2012,03,25,05,33,5.70
2012,03,25,05,34,5.70
2012,03,25,05,35,5.70
2012,03,25,05,36,5.70
2012,03,25,05,37,5.70
2012,03,25,05,38,5.70
2012,03,25,05,39,5.70
2012,03,25,05,40,5.70
2012,03,25,05,41,5.70
2012,03,25,05,42,5.70
2012,03,25,05,43,5.80
2012,03,25,05,44,5.90
2012,03,25,05,45,5.90
2012,03,25,05,46,6.00
2012,03,25,05,47,6.00
2012,03,25,05,48,6.00
2012,03,25,05,49,6.00
2012,03,25,05,50,5.90
2012,03,25,05,51,5.90
2012,03,25,05,52,5.90
2012,03,25,05,53,6.00
2012,03,25,05,54,6.00
2012,03,25,05,55,6.10
2012,03,25,05,56,6.10
2012,03,25,05,57,6.10
2012,03,25,05,58,6.10
2012,03,25,05,59,6.10
2012,03,25,06,00,6.10
2012,03,25,06,01,6.10
2012,03,25,06,02,6.20
2012,03,25,06,03,6.20
2012,03,25,06,04,6.20
2012,03,25,06,05,6.20
2012,03,25,06,06,6.20
2012,03,25,06,07,6.30
2012,03,25,06,08,6.30
2012,03,25,06,09,6.40
2012,03,25,06,10,6.40
2012,03,25,06,11,6.40
2012,03,25,06,12,6.40
2012,03,25,06,13,6.40
2012,03,25,06,14,6.40
2012,03,25,06,15,6.40
2012,03,25,06,16,6.50
2012,03,25,06,17,6.60
2012,03,25,06,18,6.60
2012,03,25,06,19,6.60
2012,03,25,06,20,6.60
2012,03,25,06,21,6.60
2012,03,25,06,22,6.60
2012,03,25,06,23,6.60
2012,03,25,06,24,6.60
2012,03,25,06,25,6.60
2012,03,25,06,26,6.60
2012,03,25,06,27,6.60
2012,03,25,06,28,6.60
2012,03,25,06,29,6.60
2012,03,25,06,30,6.60
2012,03,25,06,31,6.60
2012,03,25,06,32,6.60
2012,03,25,06,33,6.60
2012,03,25,06,34,6.50
2012,03,25,06,35,6.40
2012,03,25,06,36,6.40
2012,03,25,06,37,6.40
2012,03,25,06,38,6.40
2012,03,25,06,39,6.40
2012,03,25,06,40,6.40
2012,03,25,06,41,6.40
2012,03,25,06,42,6.30
2012,03,25,06,43,6.30
2012,03,25,06,44,6.30
2012,03,25,06,45,6.20
2012,03,25,06,46,6.30
2012,03,25,06,47,6.30
2012,03,25,06,48,6.30
2012,03,25,06,49,6.30
2012,03,25,06,50,6.30
2012,03,25,06,51,6.30
2012,03,25,06,52,6.30
2012,03,25,06,53,6.30
2012,03,25,06,54,6.30
2012,03,25,06,55,6.30
2012,03,25,06,56,6.30
2012,03,25,06,57,6.30
2012,03,25,06,58,6.30
2012,03,25,06,59,6.20
2012,03,25,07,00,6.20
2012,03,25,07,01,6.20
2012,03,25,07,02,6.20
2012,03,25,07,03,6.20
2012,03,25,07,04,6.20
2012,03,25,07,05,6.20
2012,03,25,07,06,6.20
2012,03,25,07,07,6.20
2012,03,25,07,08,6.20
2012,03,25,07,09,6.10
2012,03,25,07,10,6.10
2012,03,25,07,11,6.10
2012,03,25,07,12,6.10
2012,03,25,07,13,6.10
2012,03,25,07,14,6.10
2012,03,25,07,15,6.10
2012,03,25,07,16,6.10
2012,03,25,07,17,6.10
2012,03,25,07,18,6.10
2012,03,25,07,19,6.00
2012,03,25,07,20,6.00
2012,03,25,07,21,6.00
2012,03,25,07,22,6.00
2012,03,25,07,23,6.00
2012,03,25,07,24,6.00
2012,03,25,07,25,6.00
2012,03,25,07,26,5.90
2012,03,25,07,27,5.90
2012,03,25,07,28,5.90
2012,03,25,07,29,5.90
2012,03,25,07,30,5.90
2012,03,25,07,31,5.90
2012,03,25,07,32,5.90
2012,03,25,07,33,5.90
2012,03,25,07,34,5.90
2012,03,25,07,35,5.90
2012,03,25,07,36,5.90
2012,03,25,07,37,5.90
2012,03,25,07,38,5.90
2012,03,25,07,39,5.90
2012,03,25,07,40,5.90
2012,03,25,07,41,5.80
2012,03,25,07,42,5.80
2012,03,25,07,43,5.80
2012,03,25,07,44,5.80
2012,03,25,07,45,5.80
2012,03,25,07,46,5.80
2012,03,25,07,47,5.80
2012,03,25,07,48,5.80
2012,03,25,07,49,5.90
2012,03,25,07,50,5.90
2012,03,25,07,51,5.90
2012,03,25,07,52,6.00
2012,03,25,07,53,6.00
2012,03,25,07,54,6.00
2012,03,25,07,55,6.00
2012,03,25,07,56,6.00
2012,03,25,07,57,6.10
2012,03,25,07,58,6.10
2012,03,25,07,59,6.10
2012,03,25,08,00,6.10
2012,03,25,08,01,6.10
2012,03,25,08,02,6.20
2012,03,25,08,03,6.20
2012,03,25,08,04,6.20
2012,03,25,08,05,6.20
2012,03,25,08,06,6.20
2012,03,25,08,07,6.20
2012,03,25,08,08,6.20
2012,03,25,08,09,6.30
2012,03,25,08,10,6.30
2012,03,25,08,11,6.30
2012,03,25,08,12,6.40
2012,03,25,08,13,6.40
2012,03,25,08,14,6.40
2012,03,25,08,15,6.40
2012,03,25,08,16,6.50
2012,03,25,08,17,6.60
2012,03,25,08,18,6.60
2012,03,25,08,19,6.60
2012,03,25,08,20,6.70
2012,03,25,08,21,6.80
2012,03,25,08,22,6.80
2012,03,25,08,23,6.80
2012,03,25,08,24,6.90
2012,03,25,08,25,7.00
2012,03,25,08,26,7.00
2012,03,25,08,27,7.10
2012,03,25,08,28,7.20
2012,03,25,08,29,7.20
2012,03,25,08,30,7.30
2012,03,25,08,31,7.30
2012,03,25,08,32,7.30
2012,03,25,08,33,7.30
2012,03,25,08,34,7.30
2012,03,25,08,35,7.30
2012,03,25,08,36,7.30
2012,03,25,08,37,7.30
2012,03,25,08,38,7.40
2012,03,25,08,39,7.40
2012,03,25,08,40,7.40
2012,03,25,08,41,7.40
2012,03,25,08,42,7.40
2012,03,25,08,43,7.40
2012,03,25,08,44,7.40
2012,03,25,08,45,7.40
2012,03,25,08,46,7.40
2012,03,25,08,47,7.40
2012,03,25,08,48,7.40
2012,03,25,08,49,7.40
2012,03,25,08,50,7.40
2012,03,25,08,51,7.40
2012,03,25,08,52,7.50
2012,03,25,08,53,7.50
2012,03,25,08,54,7.50
2012,03,25,08,55,7.50
2012,03,25,08,56,7.50
2012,03,25,08,57,7.50
2012,03,25,08,58,7.50
2012,03,25,08,59,7.50
2012,03,25,09,00,7.60
2012,03,25,09,01,7.60
2012,03,25,09,02,7.60
2012,03,25,09,03,7.60
2012,03,25,09,04,7.60
2012,03,25,09,05,7.60
2012,03,25,09,06,7.70
2012,03,25,09,07,7.70
2012,03,25,09,08,7.70
2012,03,25,09,09,7.70
2012,03,25,09,10,7.70
2012,03,25,09,11,7.70
2012,03,25,09,12,7.70
2012,03,25,09,13,7.80
2012,03,25,09,14,7.80
2012,03,25,09,15,7.80
2012,03,25,09,16,7.80
2012,03,25,09,17,7.80
2012,03,25,09,18,7.80
2012,03,25,09,19,7.80
2012,03,25,09,20,7.80
2012,03,25,09,21,7.90
2012,03,25,09,22,7.90
2012,03,25,09,23,7.90
2012,03,25,09,24,7.90
2012,03,25,09,25,7.90
2012,03,25,09,26,7.90
2012,03,25,09,27,8.00
2012,03,25,09,28,7.90
2012,03,25,09,29,7.90
2012,03,25,09,30,7.90
2012,03,25,09,31,7.90
2012,03,25,09,32,7.90
2012,03,25,09,33,8.00
2012,03,25,09,34,8.00
2012,03,25,09,35,8.00
2012,03,25,09,36,8.10
2012,03,25,09,37,8.10
2012,03,25,09,38,8.20
2012,03,25,09,39,8.20
2012,03,25,09,40,8.20
2012,03,25,09,41,8.30
2012,03,25,09,42,8.30
2012,03,25,09,43,8.30
2012,03,25,09,44,8.30
2012,03,25,09,45,8.30
2012,03,25,09,46,8.30
2012,03,25,09,47,8.30
2012,03,25,09,48,8.40
2012,03,25,09,49,8.40
2012,03,25,09,50,8.40
2012,03,25,09,51,8.40
2012,03,25,09,52,8.50
2012,03,25,09,53,8.50
2012,03,25,09,54,8.60
2012,03,25,09,55,8.60
2012,03,25,09,56,8.60
2012,03,25,09,57,8.70
2012,03,25,09,58,8.70
2012,03,25,09,59,8.80
2012,03,25,10,00,8.80
2012,03,25,10,01,8.80
2012,03,25,10,02,8.80
2012,03,25,10,03,8.80
2012,03,25,10,04,8.80
2012,03,25,10,05,8.70
2012,03,25,10,06,8.70
2012,03,25,10,07,8.80
2012,03,25,10,08,8.80
2012,03,25,10,09,8.90
2012,03,25,10,10,8.90
2012,03,25,10,11,8.90
2012,03,25,10,12,9.00
2012,03,25,10,13,9.10
2012,03,25,10,14,9.20
2012,03,25,10,15,9.30
2012,03,25,10,16,9.40
2012,03,25,10,17,9.40
2012,03,25,10,18,9.50
2012,03,25,10,19,9.50
2012,03,25,10,20,9.60
2012,03,25,10,21,9.60
2012,03,25,10,22,9.60
2012,03,25,10,23,9.70
2012,03,25,10,24,9.70
2012,03,25,10,25,9.70
2012,03,25,10,26,9.70
2012,03,25,10,27,9.70
2012,03,25,10,28,9.70
2012,03,25,10,29,9.70
2012,03,25,10,30,9.60
2012,03,25,10,31,9.60
2012,03,25,10,32,9.50
2012,03,25,10,33,9.50
2012,03,25,10,34,9.40
2012,03,25,10,35,9.40
2012,03,25,10,36,9.40
2012,03,25,10,37,9.40
2012,03,25,10,38,9.40
2012,03,25,10,39,9.50
2012,03,25,10,40,9.50
2012,03,25,10,41,9.60
2012,03,25,10,42,9.60
2012,03,25,10,43,9.70
2012,03,25,10,44,9.80
2012,03,25,10,45,9.80
2012,03,25,10,46,9.90
2012,03,25,10,47,9.90
2012,03,25,10,48,9.90
2012,03,25,10,49,9.90
2012,03,25,10,50,9.90
2012,03,25,10,51,9.90
2012,03,25,10,52,9.90
2012,03,25,10,53,9.90
2012,03,25,10,54,10.00
2012,03,25,10,55,10.10
2012,03,25,10,56,10.10
2012,03,25,10,57,10.00
2012,03,25,10,58,9.90
2012,03,25,10,59,10.00
2012,03,25,11,00,10.10
2012,03,25,11,01,10.10
2012,03,25,11,02,10.10
2012,03,25,11,03,10.00
2012,03,25,11,04,9.90
2012,03,25,11,05,9.90
2012,03,25,11,06,10.10
2012,03,25,11,07,10.10
2012,03,25,11,08,10.10
2012,03,25,11,09,10.20
2012,03,25,11,10,10.10
2012,03,25,11,11,10.10
2012,03,25,11,12,10.10
2012,03,25,11,13,10.10
2012,03,25,11,14,10.10
2012,03,25,11,15,10.10
2012,03,25,11,16,10.20
2012,03,25,11,17,10.20
2012,03,25,11,18,10.20
2012,03,25,11,19,10.20
2012,03,25,11,20,10.30
2012,03,25,11,21,10.30
2012,03,25,11,22,10.30
2012,03,25,11,23,10.30
2012,03,25,11,24,10.30
2012,03,25,11,25,10.40
2012,03,25,11,26,10.30
2012,03,25,11,27,10.20
2012,03,25,11,28,10.10
2012,03,25,11,29,10.20
2012,03,25,11,30,10.20
2012,03,25,11,31,10.30
2012,03,25,11,32,10.40
2012,03,25,11,33,10.40
2012,03,25,11,34,10.40
2012,03,25,11,35,10.40
2012,03,25,11,36,10.40
2012,03,25,11,37,10.50
2012,03,25,11,38,10.60
2012,03,25,11,39,10.60
2012,03,25,11,40,10.60
2012,03,25,11,41,10.70
2012,03,25,11,42,10.70
2012,03,25,11,43,10.70
2012,03,25,11,44,10.80
2012,03,25,11,45,10.90
2012,03,25,11,46,10.90
2012,03,25,11,47,10.90
2012,03,25,11,48,10.90
2012,03,25,11,49,10.90
2012,03,25,11,50,10.90
2012,03,25,11,51,10.90
2012,03,25,11,52,10.90
2012,03,25,11,53,10.90
2012,03,25,11,54,10.90
2012,03,25,11,55,10.90
2012,03,25,11,56,10.90
2012,03,25,11,57,10.90
2012,03,25,11,58,10.90
2012,03,25,11,59,10.90
2012,03,25,12,00,10.90
2012,03,25,12,01,10.90
2012,03,25,12,02,11.00
2012,03,25,12,03,11.10
2012,03,25,12,04,11.10
2012,03,25,12,05,11.20
2012,03,25,12,06,11.30
2012,03,25,12,07,11.40
2012,03,25,12,08,11.40
2012,03,25,12,09,11.40
2012,03,25,12,10,11.40
2012,03,25,12,11,11.40
2012,03,25,12,12,11.40
2012,03,25,12,13,11.30
2012,03,25,12,14,11.20
2012,03,25,12,15,11.10
2012,03,25,12,16,11.10
2012,03,25,12,17,11.10
2012,03,25,12,18,11.20
2012,03,25,12,19,11.20
2012,03,25,12,20,11.10
2012,03,25,12,21,11.20
2012,03,25,12,22,11.20
2012,03,25,12,23,11.20
2012,03,25,12,24,11.20
2012,03,25,12,25,11.20
2012,03,25,12,26,11.10
2012,03,25,12,27,11.10
2012,03,25,12,28,11.10
2012,03,25,12,29,11.10
2012,03,25,12,30,11.10
2012,03,25,12,31,11.10
2012,03,25,12,32,11.10
2012,03,25,12,33,11.10
2012,03,25,12,34,11.20
2012,03,25,12,35,11.20
2012,03,25,12,36,11.20
2012,03,25,12,37,11.30
2012,03,25,12,38,11.30
2012,03,25,12,39,11.30
2012,03,25,12,40,11.30
2012,03,25,12,41,11.40
2012,03,25,12,42,11.60
2012,03,25,12,43,11.60
2012,03,25,12,44,11.60
2012,03,25,12,45,11.70
2012,03,25,12,46,11.70
2012,03,25,12,47,11.70
2012,03,25,12,48,11.70
2012,03,25,12,49,11.70
2012,03,25,12,50,11.60
2012,03,25,12,51,11.60
2012,03,25,12,52,11.70
2012,03,25,12,53,11.80
2012,03,25,12,54,11.80
2012,03,25,12,55,11.80
2012,03,25,12,56,11.80
2012,03,25,12,57,11.80
2012,03,25,12,58,11.80
2012,03,25,12,59,11.80
2012,03,25,13,00,11.80
2012,03,25,13,01,11.80
2012,03,25,13,02,11.80
2012,03,25,13,03,11.80
2012,03,25,13,04,11.70
2012,03,25,13,05,11.60
2012,03,25,13,06,11.70
2012,03,25,13,07,11.70
2012,03,25,13,08,11.60
2012,03,25,13,09,11.60
2012,03,25,13,10,11.70
2012,03,25,13,11,11.70
2012,03,25,13,12,11.70
2012,03,25,13,13,11.70
2012,03,25,13,14,11.70
2012,03,25,13,15,11.80
2012,03,25,13,16,11.80
2012,03,25,13,17,11.70
2012,03,25,13,18,11.70
2012,03,25,13,19,11.80
2012,03,25,13,20,11.80
2012,03,25,13,21,11.70
2012,03,25,13,22,11.60
2012,03,25,13,23,11.60
2012,03,25,13,24,11.60
2012,03,25,13,25,11.60
2012,03,25,13,26,11.60
2012,03,25,13,27,11.60
2012,03,25,13,28,11.60
2012,03,25,13,29,11.60
2012,03,25,13,30,11.50
2012,03,25,13,31,11.40
2012,03,25,13,32,11.40
2012,03,25,13,33,11.40
2012,03,25,13,34,11.40
2012,03,25,13,35,11.40
2012,03,25,13,36,11.50
2012,03,25,13,37,11.60
2012,03,25,13,38,11.60
2012,03,25,13,39,11.70
2012,03,25,13,40,11.80
2012,03,25,13,41,11.80
2012,03,25,13,42,11.80
2012,03,25,13,43,11.80
2012,03,25,13,44,11.80
2012,03,25,13,45,11.90
2012,03,25,13,46,12.00
2012,03,25,13,47,12.00
2012,03,25,13,48,12.00
2012,03,25,13,49,11.90
2012,03,25,13,50,11.90
2012,03,25,13,51,12.00
2012,03,25,13,52,12.00
2012,03,25,13,53,12.10
2012,03,25,13,54,12.20
2012,03,25,13,55,12.20
2012,03,25,13,56,12.20
2012,03,25,13,57,12.20
2012,03,25,13,58,12.20
2012,03,25,13,59,12.10
2012,03,25,14,00,12.00
2012,03,25,14,01,12.00
2012,03,25,14,02,12.00
2012,03,25,14,03,12.00
2012,03,25,14,04,12.00
2012,03,25,14,05,12.00
2012,03,25,14,06,12.00
2012,03,25,14,07,12.10
2012,03,25,14,08,12.20
2012,03,25,14,09,12.30
2012,03,25,14,10,12.30
2012,03,25,14,11,12.40
2012,03,25,14,12,12.50
2012,03,25,14,13,12.60
2012,03,25,14,14,12.60
2012,03,25,14,15,12.70
2012,03,25,14,16,12.70
2012,03,25,14,17,12.60
2012,03,25,14,18,12.60
2012,03,25,14,19,12.70
2012,03,25,14,20,12.60
2012,03,25,14,21,12.70
2012,03,25,14,22,12.80
2012,03,25,14,23,12.80
2012,03,25,14,24,12.90
2012,03,25,14,25,12.90
2012,03,25,14,26,12.80
2012,03,25,14,27,12.80
2012,03,25,14,28,12.80
2012,03,25,14,29,12.80
2012,03,25,14,30,12.80
2012,03,25,14,31,12.80
2012,03,25,14,32,12.70
2012,03,25,14,33,12.70
2012,03,25,14,34,12.70
2012,03,25,14,35,12.70
2012,03,25,14,36,12.60
2012,03,25,14,37,12.60
2012,03,25,14,38,12.50
2012,03,25,14,39,12.50
2012,03,25,14,40,12.50
2012,03,25,14,41,12.50
2012,03,25,14,42,12.50
2012,03,25,14,43,12.50
2012,03,25,14,44,12.40
2012,03,25,14,45,12.40
2012,03,25,14,46,12.30
2012,03,25,14,47,12.40
2012,03,25,14,48,12.50
2012,03,25,14,49,12.50
2012,03,25,14,50,12.50
2012,03,25,14,51,12.50
2012,03,25,14,52,12.60
2012,03,25,14,53,12.70
2012,03,25,14,54,12.80
2012,03,25,14,55,12.90
2012,03,25,14,56,13.00
2012,03,25,14,57,13.00
2012,03,25,14,58,13.00
2012,03,25,14,59,13.00
2012,03,25,15,00,13.00
2012,03,25,15,01,13.00
2012,03,25,15,02,13.00
2012,03,25,15,03,13.00
2012,03,25,15,04,13.10
2012,03,25,15,05,13.10
2012,03,25,15,06,13.10
2012,03,25,15,07,13.20
2012,03,25,15,08,13.30
2012,03,25,15,09,13.30
2012,03,25,15,10,13.30
2012,03,25,15,11,13.30
2012,03,25,15,12,13.30
2012,03,25,15,13,13.30
2012,03,25,15,14,13.30
2012,03,25,15,15,13.30
2012,03,25,15,16,13.40
2012,03,25,15,17,13.30
2012,03,25,15,18,13.20
2012,03,25,15,19,13.10
2012,03,25,15,20,13.20
2012,03,25,15,21,13.20
2012,03,25,15,22,13.30
2012,03,25,15,23,13.30
2012,03,25,15,24,13.40
2012,03,25,15,25,13.60
2012,03,25,15,26,13.60
2012,03,25,15,27,13.70
2012,03,25,15,28,13.80
2012,03,25,15,29,13.90
2012,03,25,15,30,14.00
2012,03,25,15,31,13.90
2012,03,25,15,32,13.90
2012,03,25,15,33,13.90
2012,03,25,15,34,13.90
2012,03,25,15,35,13.80
2012,03,25,15,36,13.90
2012,03,25,15,37,14.00
2012,03,25,15,38,14.10
2012,03,25,15,39,14.10
2012,03,25,15,40,14.10
2012,03,25,15,41,14.10
2012,03,25,15,42,14.10
2012,03,25,15,43,14.20
2012,03,25,15,44,14.40
2012,03,25,15,45,14.40
2012,03,25,15,46,14.30
2012,03,25,15,47,14.20
2012,03,25,15,48,14.20
2012,03,25,15,49,14.20
2012,03,25,15,50,14.10
2012,03,25,15,51,14.00
2012,03,25,15,52,14.00
2012,03,25,15,53,14.00
2012,03,25,15,54,14.10
2012,03,25,15,55,14.10
2012,03,25,15,56,14.00
2012,03,25,15,57,14.00
2012,03,25,15,58,13.90
2012,03,25,15,59,13.90
2012,03,25,16,00,13.70
2012,03,25,16,01,13.70
2012,03,25,16,02,13.70
2012,03,25,16,03,13.70
2012,03,25,16,04,13.70
2012,03,25,16,05,13.70
2012,03,25,16,06,13.70
2012,03,25,16,07,13.70
2012,03,25,16,08,13.70
2012,03,25,16,09,13.70
2012,03,25,16,10,13.70
2012,03,25,16,11,13.80
2012,03,25,16,12,13.80
2012,03,25,16,13,13.70
2012,03,25,16,14,13.70
2012,03,25,16,15,13.80
2012,03,25,16,16,13.80
2012,03,25,16,17,13.80
2012,03,25,16,18,13.80
2012,03,25,16,19,13.90
2012,03,25,16,20,13.90
2012,03,25,16,21,13.90
2012,03,25,16,22,13.70
2012,03,25,16,23,13.70
2012,03,25,16,24,13.60
2012,03,25,16,25,13.60
2012,03,25,16,26,13.60
2012,03,25,16,27,13.50
2012,03,25,16,28,13.50
2012,03,25,16,29,13.40
2012,03,25,16,30,13.30
2012,03,25,16,31,13.30
2012,03,25,16,32,13.40
2012,03,25,16,33,13.40
2012,03,25,16,34,13.40
2012,03,25,16,35,13.30
2012,03,25,16,36,13.30
2012,03,25,16,37,13.30
2012,03,25,16,38,13.30
2012,03,25,16,39,13.30
2012,03,25,16,40,13.30
2012,03,25,16,41,13.10
2012,03,25,16,42,13.00
2012,03,25,16,43,13.00
2012,03,25,16,44,13.00
2012,03,25,16,45,13.00
2012,03,25,16,46,13.00
2012,03,25,16,47,13.00
2012,03,25,16,48,13.00
2012,03,25,16,49,13.00
2012,03,25,16,50,12.90
2012,03,25,16,51,12.90
2012,03,25,16,52,12.90
2012,03,25,16,53,12.80
2012,03,25,16,54,12.80
2012,03,25,16,55,12.80
2012,03,25,16,56,12.80
2012,03,25,16,57,12.80
2012,03,25,16,58,12.80
2012,03,25,16,59,12.80
2012,03,25,17,00,12.90
2012,03,25,17,01,12.90
2012,03,25,17,02,12.90
2012,03,25,17,03,12.90
2012,03,25,17,04,12.90
2012,03,25,17,05,12.90
2012,03,25,17,06,12.90
2012,03,25,17,07,12.90
2012,03,25,17,08,12.90
2012,03,25,17,09,12.90
2012,03,25,17,10,13.00
2012,03,25,17,11,13.00
2012,03,25,17,12,13.00
2012,03,25,17,13,13.00
2012,03,25,17,14,13.00
2012,03,25,17,15,12.90
2012,03,25,17,16,12.80
2012,03,25,17,17,12.80
2012,03,25,17,18,12.80
2012,03,25,17,19,12.80
2012,03,25,17,20,12.80
2012,03,25,17,21,12.80
2012,03,25,17,22,12.80
2012,03,25,17,23,12.90
2012,03,25,17,24,12.90
2012,03,25,17,25,12.90
2012,03,25,17,26,12.90
2012,03,25,17,27,12.90
2012,03,25,17,28,12.90
2012,03,25,17,29,12.90
2012,03,25,17,30,12.90
2012,03,25,17,31,12.90
2012,03,25,17,32,12.90
2012,03,25,17,33,12.80
2012,03,25,17,34,12.90
2012,03,25,17,35,12.90
2012,03,25,17,36,12.90
2012,03,25,17,37,13.00
2012,03,25,17,38,13.00
2012,03,25,17,39,13.00
2012,03,25,17,40,13.00
2012,03,25,17,41,13.00
2012,03,25,17,42,13.00
2012,03,25,17,43,13.00
2012,03,25,17,44,13.00
2012,03,25,17,45,13.00
2012,03,25,17,46,13.00
2012,03,25,17,47,13.00
2012,03,25,17,48,13.10